Wall Blake, Anguilla

6:11 PM AST on August 04, 2015 (GMT -0400)
Concordia | | Change Station
CLOSE
Current Station
Personal Weather Station
Location: Saint-Martin,
Elevation: 85 ft
Nearby Weather Stations

Elev 85 ft 18.07 °N, 63.07 °W | Updated 30 seconds ago

Partly Cloudy
Partly Cloudy
88.5 °F
Feels Like 100 °F
N
4.0
Wind Variable Wind from East
Gusts 6.5 mph

Today
High -- | Low -- °F
--% Chance of Precip.
Yesterday
High -- | Low -- °F
Precip. -- in
5:51 AM 6:45 PM
Waning Gibbous, 74% visible
Pressure 30.01 in
Visibility 6.2 miles
Clouds Few 2000 ft
Heat Index 100 °F
Dew Point 76 °F
Humidity 67%
Rainfall 0.00 in
Snow Depth Not available.
UV 0.0 out of 12
Pollen Not available.
Air Quality Not available.
Flu Activity Not available.
METAR TNCM 042200Z 07014KT 9999 FEW020 29/23 Q1016 A3002 NOSIG

More Conditions Fewer Conditions

Pressure 30.01 in
Visibility 6.2 miles
Clouds Few 2000 ft
Heat Index 100 °F
Dew Point 76 °F
Humidity 67%
Rainfall 0.00 in
Snow Depth Not available.
UV 0.0 out of 12
Pollen Not available.
Air Quality Not available.
Flu Activity Not available.
METAR TNCM 042200Z 07014KT 9999 FEW020 29/23 Q1016 A3002 NOSIG

More Conditions Fewer Conditions

10-Day Weather Forecast

×

Almanac

Astronomy

Aug. 04, 2015 Rise Set
Actual Time
Civil Twilight
Nautical Twilight
Astronomical Twilight
Moon
Length of Visible Light
Length of Day
Tomorrow will be .
, % of the Moon is Illuminated

Today's Extremes

Country Highs Country Lows

Community

WunderPhotos

Upload Photos

1,844,002 photos uploaded!

WunderBlogs® & News

Nearby

Air Quality

  Air Quality AQ Index Pollutant
Not available.

Snow Depth

Station Depth Elevation

Earthquake Activity

City Distance Mag. Time & Date
Minimum magnitude displayed is 2.5.

Coastal Water Temperatures

Place Temperature

Stations

Nearby Weather Stations

Station Location Temp. Windchill Dew Point Humidity Wind Precip. Elev Updated Type